When you browse on this site, cookies collect data to enhance your experience and personalize the content and advertising you see.
Visit our Privacy Policy to learn more. By continuing to use the site, you agree to this use of cookies and data.

Hourly Weather Ovalle

Today, 15 July, Wednesday

Time Temperature Precipitation Wind Pressure Humidity
00:00 +13°C° 0 mm 0 mps 738 mmHg 75%
01:00 +12°C° 0 mm 0 mps 738 mmHg 76%
02:00 +12°C° 0 mm 0 mps 738 mmHg 76%
03:00 +11°C° 0 mm 0 mps 738 mmHg 77%
04:00 +11°C° 0 mm 0 mps 737 mmHg 77%
05:00 +11°C° 0 mm 0 mps 738 mmHg 77%
06:00 +11°C° 0 mm 0 mps 738 mmHg 77%
07:00 +11°C° 0 mm 0 mps 738 mmHg 79%
08:00 +13°C° 0 mm 0 mps 738 mmHg 71%
09:00 +16°C° 0 mm 1 mps 738 mmHg 63%
10:00 +19°C° 0 mm 1 mps 739 mmHg 55%
11:00 +20°C° 0 mm 1 mps 738 mmHg 52%
12:00 +20°C° 0 mm 2 mps 738 mmHg 49%
13:00 +21°C° 0 mm 2 mps 738 mmHg 46%
14:00 +20°C° 0 mm 2 mps 738 mmHg 49%
15:00 +20°C° 0 mm 2 mps 738 mmHg 52%
16:00 +20°C° 0 mm 2 mps 738 mmHg 54%
17:00 +18°C° 0 mm 2 mps 738 mmHg 64%
18:00 +16°C° 0 mm 1 mps 739 mmHg 73%
19:00 +15°C° 0 mm 1 mps 739 mmHg 83%
20:00 +14°C° 0 mm 1 mps 739 mmHg 84%
21:00 +13°C° 0 mm 0 mps 739 mmHg 85%
22:00 +12°C° 0 mm 0 mps 739 mmHg 87%
23:00 +12°C° 0 mm 0 mps 739 mmHg 87%

Tomorrow, 16 July, Thursday

Time Temperature Precipitation Wind Pressure Humidity
00:00 +12°C° 0 mm 0 mps 739 mmHg 87%
01:00 +11°C° 0 mm 0 mps 739 mmHg 88%
02:00 +11°C° 0 mm 0 mps 739 mmHg 86%
03:00 +11°C° 0 mm 0 mps 739 mmHg 85%
04:00 +11°C° 0 mm 0 mps 739 mmHg 83%
05:00 +11°C° 0 mm 0 mps 739 mmHg 77%
06:00 +11°C° 0 mm 0 mps 739 mmHg 70%
07:00 +13°C° 0 mm 1 mps 739 mmHg 64%
08:00 +14°C° 0 mm 0 mps 739 mmHg 55%
09:00 +17°C° 0 mm 0 mps 739 mmHg 46%
10:00 +20°C° 0 mm 0 mps 739 mmHg 37%
11:00 +22°C° 0 mm 1 mps 739 mmHg 37%
12:00 +23°C° 0 mm 1 mps 739 mmHg 37%
13:00 +23°C° 0 mm 2 mps 738 mmHg 37%
14:00 +23°C° 0 mm 1 mps 738 mmHg 39%
15:00 +23°C° 0 mm 1 mps 738 mmHg 41%
16:00 +23°C° 0 mm 1 mps 738 mmHg 43%
17:00 +21°C° 0 mm 1 mps 738 mmHg 52%
18:00 +19°C° 0 mm 1 mps 738 mmHg 60%
19:00 +15°C° 0 mm 0 mps 738 mmHg 68%
20:00 +15°C° 0 mm 0 mps 737 mmHg 69%
21:00 +14°C° 0 mm 0 mps 737 mmHg 70%
22:00 +14°C° 0 mm 0 mps 737 mmHg 70%
23:00 +13°C° 0 mm 0 mps 737 mmHg 71%

Day after tomorrow, 17 July, Friday

Time Temperature Precipitation Wind Pressure Humidity
00:00 +13°C° 0 mm 0 mps 737 mmHg 72%
01:00 +12°C° 0 mm 0 mps 736 mmHg 72%
02:00 +12°C° 0 mm 0 mps 736 mmHg 71%
03:00 +13°C° 0 mm 1 mps 736 mmHg 71%
04:00 +13°C° 0 mm 1 mps 737 mmHg 70%
05:00 +13°C° 0 mm 1 mps 737 mmHg 70%
06:00 +12°C° 0 mm 0 mps 737 mmHg 71%
07:00 +12°C° 0 mm 0 mps 737 mmHg 71%
08:00 +15°C° 0 mm 1 mps 737 mmHg 63%
09:00 +18°C° 0 mm 1 mps 738 mmHg 54%
10:00 +20°C° 0 mm 1 mps 738 mmHg 46%
11:00 +21°C° 0 mm 1 mps 738 mmHg 43%
12:00 +21°C° 0 mm 2 mps 738 mmHg 40%
13:00 +23°C° 0 mm 2 mps 738 mmHg 36%
14:00 +21°C° 0 mm 2 mps 738 mmHg 39%
15:00 +20°C° 0 mm 2 mps 738 mmHg 41%
16:00 +20°C° 0 mm 2 mps 738 mmHg 44%
17:00 +19°C° 0 mm 1 mps 738 mmHg 51%
18:00 +18°C° 0 mm 1 mps 738 mmHg 59%
19:00 +14°C° 0 mm 0 mps 738 mmHg 66%
20:00 +14°C° 0 mm 0 mps 739 mmHg 67%
21:00 +13°C° 0 mm 0 mps 739 mmHg 68%
22:00 +14°C° 0 mm 1 mps 739 mmHg 69%
23:00 +12°C° 0 mm 0 mps 739 mmHg 72%

18 July, Saturday

Time Temperature Precipitation Wind Pressure Humidity
00:00 +12°C° 0 mm 0 mps 739 mmHg 74%
01:00 +11°C° 0 mm 0 mps 739 mmHg 77%
02:00 +11°C° 0 mm 0 mps 738 mmHg 76%
03:00 +11°C° 0 mm 0 mps 738 mmHg 75%
04:00 +11°C° 0 mm 0 mps 738 mmHg 75%
05:00 +11°C° 0 mm 0 mps 738 mmHg 74%
06:00 +11°C° 0 mm 0 mps 738 mmHg 73%
07:00 +11°C° 0 mm 0 mps 738 mmHg 72%
08:00 +13°C° 0 mm 0 mps 738 mmHg 62%
09:00 +15°C° 0 mm 0 mps 739 mmHg 52%
10:00 +17°C° 0 mm 0 mps 739 mmHg 42%
11:00 +20°C° 0 mm 1 mps 739 mmHg 39%
12:00 +20°C° 0 mm 1 mps 738 mmHg 36%
13:00 +21°C° 0 mm 1 mps 738 mmHg 33%
14:00 +21°C° 0 mm 1 mps 738 mmHg 36%
15:00 +21°C° 0 mm 1 mps 738 mmHg 38%
16:00 +20°C° 0 mm 1 mps 738 mmHg 41%
17:00 +19°C° 0 mm 1 mps 738 mmHg 51%
18:00 +16°C° 0 mm 1 mps 738 mmHg 61%
19:00 +14°C° 0 mm 0 mps 738 mmHg 71%
20:00 +13°C° 0 mm 0 mps 738 mmHg 74%
21:00 +13°C° 0 mm 0 mps 738 mmHg 77%
22:00 +13°C° 0 mm 0 mps 738 mmHg 80%
23:00 +12°C° 0 mm 0 mps 738 mmHg 80%

19 July, Sunday

Time Temperature Precipitation Wind Pressure Humidity
00:00 +12°C° 0 mm 0 mps 738 mmHg 81%
01:00 +12°C° 0 mm 0 mps 738 mmHg 82%
02:00 +11°C° 0 mm 0 mps 738 mmHg 82%
03:00 +11°C° 0 mm 0 mps 737 mmHg 83%
04:00 +11°C° 0 mm 0 mps 737 mmHg 83%
05:00 +11°C° 0 mm 0 mps 737 mmHg 83%
06:00 +11°C° 0 mm 0 mps 737 mmHg 83%
07:00 +11°C° 0 mm 0 mps 737 mmHg 82%
08:00 +12°C° 0 mm 0 mps 738 mmHg 74%
09:00 +14°C° 0 mm 0 mps 738 mmHg 66%
10:00 +16°C° 0 mm 0 mps 738 mmHg 58%
11:00 +19°C° 0 mm 1 mps 738 mmHg 56%
12:00 +19°C° 0 mm 2 mps 737 mmHg 54%
13:00 +19°C° 0 mm 2 mps 737 mmHg 52%
14:00 +19°C° 0 mm 2 mps 737 mmHg 55%
15:00 +18°C° 0 mm 2 mps 737 mmHg 59%
16:00 +18°C° 0 mm 2 mps 737 mmHg 62%
17:00 +17°C° 0 mm 2 mps 738 mmHg 69%
18:00 +16°C° 0 mm 1 mps 738 mmHg 77%
19:00 +15°C° 0 mm 1 mps 738 mmHg 84%
20:00 +14°C° 0 mm 1 mps 738 mmHg 87%
21:00 +13°C° 0 mm 0 mps 738 mmHg 89%
22:00 +12°C° 0 mm 0 mps 738 mmHg 92%
23:00 +12°C° 0 mm 0 mps 738 mmHg 93%

20 July, Monday

Time Temperature Precipitation Wind Pressure Humidity
00:00 +12°C° 0 mm 0 mps 738 mmHg 93%
01:00 +11°C° 0 mm 0 mps 738 mmHg 94%
02:00 +11°C° 0 mm 0 mps 738 mmHg 93%
03:00 +11°C° 0 mm 0 mps 738 mmHg 92%
04:00 +11°C° 0 mm 0 mps 738 mmHg 91%
05:00 +11°C° 0 mm 0 mps 738 mmHg 90%
06:00 +11°C° 0 mm 0 mps 738 mmHg 90%
07:00 +11°C° 0 mm 0 mps 738 mmHg 89%
08:00 +13°C° 0 mm 1 mps 738 mmHg 80%
09:00 +15°C° 0 mm 1 mps 738 mmHg 72%
10:00 +16°C° 0 mm 1 mps 739 mmHg 63%
11:00 +17°C° 0 mm 2 mps 738 mmHg 59%
12:00 +18°C° 0 mm 2 mps 738 mmHg 56%
13:00 +19°C° 0 mm 3 mps 738 mmHg 52%
14:00 +18°C° 0 mm 3 mps 738 mmHg 55%
15:00 +18°C° 0 mm 3 mps 738 mmHg 58%
16:00 +17°C° 0 mm 4 mps 738 mmHg 61%
17:00 +16°C° 0 mm 3 mps 738 mmHg 68%
18:00 +15°C° 0 mm 2 mps 739 mmHg 75%
19:00 +14°C° 0 mm 1 mps 739 mmHg 81%
20:00 +14°C° 0.1 mm 1 mps 739 mmHg 81%
21:00 +14°C° 0.1 mm 1 mps 739 mmHg 80%
22:00 +14°C° 0.1 mm 1 mps 739 mmHg 80%
23:00 +14°C° 0.1 mm 1 mps 739 mmHg 81%
Show more